[[{"header":{"parameterUnit":"m.s-1","parameterCategory":1,"la1":30.2991,"la2":30.254,"lo1":-89.0895,"lo2":-89.0444,"dy":0.0017,"dx":0.0017,"nx":28,"ny":28,"refTime":"2023-08-12T09:00:00:Z","depth":0,"parameterNumber":2,"parameterNumberName":"U-component_of_WINDS"},"data":[0,0,0,0,0,0,0,0,0,0,0,0,0,0,0,0,0,0,0,0,0,0,0,0,0,0,0,0,0,0,0,0,0,0,0,0,0,0,0,0,0,0,0,0,0,0,0,0,0,0,0,0,0,0,0,0,0,0,0.5029,0.503,0,0.5062,0.5063,0.5063,0.5065,0.5065,0.5065,0.5064,0.5097,0.5098,0.5099,0,0,0,0,0,0,0,0,0,0,0,0,0,0.4966,0.4967,0.5029,0.503,0.503,0.5062,0.5063,0.5063,0.5065,0.5065,0.5065,0.5064,0.5097,0.5098,0.5099,0,0,0,0,0,0,0,0,0,0,0,0,0,0.4996,0.4967,0.5029,0.5035,0.5036,0.5062,0.5063,0.5063,0.5066,0.5065,0.5065,0.5064,0.5096,0.5098,0.51,0.5122,0,0,0.5105,0.5106,0,0,0,0,0,0,0,0,0.4994,0.4998,0.5034,0.5035,0.5036,0.5059,0.5052,0.5083,0.5066,0.5054,0.5064,0.5064,0.5085,0.5087,0.5095,0.5123,0.5124,0.5105,0.5106,0.5107,0.5108,0,0,0,0,0,0,0,0.4992,0.4996,0.5042,0.5034,0.5036,0.5035,0.5039,0.5058,0.5072,0.5055,0.5056,0.5059,0.5085,0.5093,0.5096,0.5125,0.5105,0.5107,0.5108,0.5109,0.5171,0.5171,0,0,0,0,0,0,0.4989,0.4995,0.5041,0.5043,0.5013,0.5037,0.5041,0.5052,0.5072,0.5074,0.506,0.5059,0.509,0.5093,0.5097,0.5122,0.5107,0.5109,0.511,0.517,0.5171,0.5172,0,0,0,0,0,0,0.4988,0.4993,0.504,0.5019,0.5025,0.5039,0.5051,0.5053,0.5061,0.5075,0.5078,0.5066,0.509,0.5094,0.5115,0.5124,0.511,0.5111,0.517,0.5171,0.5171,0.5175,0,0,0,0,0,0,0.4986,0.4993,0.5002,0.5019,0.5026,0.5058,0.5052,0.5054,0.5064,0.5064,0.5081,0.5084,0.509,0.5112,0.5117,0.5126,0.5113,0.5169,0.517,0.5171,0.5174,0.5176,0.5177,0,0,0,0,0,0.4983,0.5002,0.5002,0.5008,0.5038,0.5059,0.5063,0.507,0.5065,0.5074,0.5083,0.5083,0.5122,0.5114,0.5119,0.5129,0.5168,0.517,0.5171,0.5173,0.5175,0.5177,0,0,0,0,0,0,0.4985,0.5004,0.5005,0.5029,0.5042,0.5059,0.5071,0.5072,0.5087,0.5086,0.5093,0.5097,0.5117,0.5126,0.5117,0.5151,0.5145,0.5147,0.5145,0.5147,0.5148,0.5146,0.5114,0,0,0,0,0,0.4988,0.5004,0.502,0.504,0.5046,0.5057,0.5067,0.5071,0.5085,0.509,0.5101,0.5113,0.5128,0.5138,0.5153,0.5175,0.5178,0.5184,0.5186,0.5187,0.5189,0.52,0.5202,0.5176,0.5176,0.5176,0,0,0.4994,0.5007,0.5016,0.504,0.5051,0.5066,0.5062,0.5079,0.509,0.5092,0.5113,0.5121,0.5135,0.5157,0.5167,0.5164,0.5197,0.5189,0.519,0.5191,0.5201,0.5204,0.5206,0.5177,0.5177,0.5176,0,0,0.5014,0.5026,0.5043,0.5053,0.5069,0.5076,0.508,0.5097,0.5102,0.5123,0.5124,0.5137,0.5163,0.5173,0.5182,0.5203,0.5204,0.5208,0.5216,0.5227,0.5229,0.5231,0.5237,0.524,0.521,0.521,0.521,0,0.502,0.5044,0.5051,0.5068,0.5077,0.508,0.5097,0.5107,0.5127,0.5133,0.513,0.5161,0.5172,0.5194,0.52,0.5207,0.5211,0.5206,0.5228,0.523,0.5232,0.5238,0.5241,0.521,0.521,0.521,0.521,0,0.5049,0.5066,0.5078,0.5097,0.5108,0.5124,0.5133,0.5143,0.5146,0.5153,0.5173,0.5185,0.5202,0.5208,0.5211,0.5231,0.5228,0.5227,0.522,0.5234,0.524,0.5243,0.5211,0.5211,0.521,0.521,0,0,0.5071,0.5093,0.5097,0.5105,0.5123,0.5135,0.5151,0.5167,0.5175,0.5189,0.5201,0.5223,0.5221,0.523,0.5234,0.5244,0.5258,0.5241,0.5241,0.5243,0.5279,0.528,0.5283,0.5259,0.5259,0.526,0.5278,0,0.5092,0.5121,0.5128,0.5152,0.5167,0.5169,0.5182,0.5194,0.5201,0.5213,0.522,0.5235,0.5232,0.5237,0.5247,0.5255,0.5266,0.5254,0.527,0.527,0.5265,0.5286,0.5287,0.5304,0.528,0.5281,0.5281,0,0.512,0.5134,0.516,0.5174,0.518,0.5193,0.5207,0.5219,0.5232,0.5236,0.5246,0.5249,0.5264,0.5258,0.5279,0.527,0.5277,0.5282,0.5282,0.5284,0.5276,0.5287,0.5309,0.5312,0.5285,0.5285,0.5284,0,0.5132,0.5157,0.5175,0.5182,0.5199,0.5208,0.5215,0.5227,0.5236,0.5248,0.5254,0.5268,0.5276,0.5286,0.5292,0.5287,0.5312,0.5306,0.5315,0.5315,0.532,0.5319,0.5343,0.5326,0.5326,0.5326,0.5325,0,0.5154,0.517,0.5181,0.5192,0.5209,0.5216,0.5232,0.5239,0.525,0.5261,0.5264,0.5275,0.5283,0.5295,0.53,0.5315,0.5319,0.5322,0.5323,0.5321,0.5321,0.5326,0.5324,0.5326,0.5326,0.5326,0.5326,0,0.517,0.5178,0.5198,0.5212,0.5216,0.5228,0.524,0.525,0.5257,0.5272,0.5275,0.5285,0.5299,0.5306,0.5324,0.5327,0.5344,0.5345,0.534,0.534,0.5348,0.5347,0.5375,0.5378,0.5359,0.536,0.536,0,0.5183,0.5195,0.521,0.5219,0.5226,0.524,0.5248,0.5255,0.5264,0.5278,0.5287,0.5301,0.5312,0.5334,0.5342,0.5355,0.5356,0.5365,0.5358,0.5355,0.5355,0.5354,0.5354,0.5366,0.5366,0.5366,0.5366,0,0.5205,0.5208,0.5221,0.5235,0.5246,0.5257,0.5268,0.5274,0.5283,0.5292,0.5306,0.5315,0.5333,0.5346,0.5359,0.5366,0.5367,0.5368,0.5371,0.5369,0.5365,0.5366,0.5342,0.5367,0.5367,0.5367,0.5367,0.5367,0.522,0.523,0.5242,0.5255,0.5264,0.5274,0.5284,0.5292,0.5304,0.5319,0.5322,0.5336,0.5347,0.5365,0.5372,0.5383,0.5381,0.5385,0.5386,0.5387,0.5386,0.5364,0.5386,0.5386,0.5386,0.5385,0.5385,0,0.5241,0.5248,0.5261,0.5276,0.5287,0.5287,0.5299,0.5307,0.532,0.533,0.5342,0.5357,0.537,0.5379,0.5391,0.5398,0.5399,0.5401,0.5401,0.5402,0.5388,0.5384,0.54,0.54,0.54,0.54,0.54,0.54,0.5253,0.527,0.5274,0.5295,0.5302,0.5317,0.5323,0.5332,0.534,0.5357,0.5368,0.5373,0.5383,0.5396,0.5407,0.5409,0.5414,0.5416,0.5418,0.5405,0.5403,0.5401,0.5398,0.5417,0.5417,0.5431,0.5431,0.5431]},{"header":{"parameterUnit":"m.s-1","parameterCategory":1,"la1":30.2991,"la2":30.254,"lo1":-89.0895,"lo2":-89.0444,"dy":0.0017,"dx":0.0017,"nx":28,"ny":28,"refTime":"2023-08-12T09:00:00:Z","depth":0,"parameterNumber":3,"parameterNumberName":"V-component_of_WINDS"},"data":[0,0,0,0,0,0,0,0,0,0,0,0,0,0,0,0,0,0,0,0,0,0,0,0,0,0,0,0,0,0,0,0,0,0,0,0,0,0,0,0,0,0,0,0,0,0,0,0,0,0,0,0,0,0,0,0,0,0,5.3572,5.3572,0,5.3544,5.3544,5.3544,5.3445,5.3443,5.344,5.3438,5.3412,5.3413,5.3415,0,0,0,0,0,0,0,0,0,0,0,0,0,5.354,5.3541,5.3572,5.3572,5.3571,5.3544,5.3544,5.3544,5.3445,5.3443,5.344,5.3437,5.3411,5.3413,5.3415,0,0,0,0,0,0,0,0,0,0,0,0,0,5.3538,5.3542,5.3572,5.3519,5.3514,5.3544,5.3544,5.3544,5.3446,5.3443,5.3439,5.3436,5.3411,5.3413,5.3415,5.3495,0,0,5.3421,5.3422,0,0,0,0,0,0,0,0,5.3538,5.3539,5.3527,5.3523,5.3517,5.3495,5.3523,5.3527,5.3447,5.3472,5.3438,5.3434,5.3442,5.3442,5.3444,5.3494,5.3493,5.3421,5.3423,5.3424,5.3424,0,0,0,0,0,0,0,5.3538,5.354,5.3561,5.3527,5.3521,5.3497,5.3493,5.3523,5.3476,5.3469,5.3462,5.346,5.3439,5.3442,5.3442,5.3492,5.3421,5.3423,5.3425,5.3425,5.3605,5.3609,0,0,0,0,0,0,5.3546,5.354,5.3562,5.356,5.3519,5.35,5.3495,5.3505,5.3476,5.3468,5.3463,5.3456,5.344,5.344,5.3441,5.3531,5.3424,5.3426,5.3427,5.3602,5.3606,5.361,0,0,0,0,0,0,5.3545,5.3549,5.3563,5.3548,5.3548,5.3504,5.3516,5.3506,5.3509,5.3471,5.3462,5.3475,5.3437,5.3438,5.3482,5.3529,5.3426,5.3428,5.3598,5.3603,5.3608,5.3714,0,0,0,0,0,0,5.3545,5.3549,5.3579,5.355,5.3549,5.3604,5.3519,5.3508,5.3513,5.3503,5.348,5.3472,5.3435,5.3479,5.3484,5.353,5.343,5.3593,5.36,5.3606,5.3706,5.3722,5.3736,0,0,0,0,0,5.3544,5.3611,5.3581,5.3584,5.3586,5.3607,5.3607,5.3562,5.3517,5.3547,5.3522,5.3473,5.3524,5.3485,5.3489,5.3537,5.359,5.3598,5.3606,5.3699,5.3719,5.3736,0,0,0,0,0,0,5.3648,5.3606,5.3572,5.3632,5.3624,5.359,5.3626,5.3585,5.359,5.358,5.3525,5.352,5.3572,5.3559,5.3516,5.3612,5.3548,5.3558,5.3618,5.3637,5.3652,5.3653,5.3432,0,0,0,0,0,5.3677,5.3698,5.366,5.3716,5.3714,5.3671,5.3679,5.3645,5.3634,5.3631,5.3609,5.3601,5.3615,5.3625,5.3636,5.3704,5.3697,5.3739,5.3754,5.3767,5.3775,5.3808,5.3826,5.3636,5.3636,5.3636,0,0,5.3739,5.3719,5.3735,5.3736,5.3726,5.3748,5.3669,5.3696,5.3712,5.3635,5.3674,5.3658,5.3646,5.3702,5.3725,5.3693,5.3826,5.3777,5.3787,5.3788,5.3819,5.3837,5.3853,5.3641,5.364,5.3639,0,0,5.3862,5.3849,5.3893,5.3884,5.3869,5.384,5.3851,5.3824,5.381,5.3849,5.3791,5.381,5.3835,5.3828,5.3828,5.3948,5.3903,5.3953,5.4031,5.4065,5.408,5.4093,5.4134,5.415,5.3962,5.3962,5.3962,0,5.394,5.3971,5.3921,5.3952,5.3954,5.3884,5.3928,5.3922,5.3912,5.3915,5.3879,5.3908,5.3895,5.3948,5.3977,5.398,5.399,5.3955,5.4082,5.4094,5.4105,5.4144,5.416,5.3968,5.3968,5.3967,5.3966,0,5.4067,5.409,5.4127,5.4118,5.4124,5.4162,5.4118,5.413,5.4096,5.4071,5.411,5.4092,5.4097,5.4108,5.4075,5.4155,5.4135,5.4091,5.4026,5.4131,5.4166,5.4181,5.3977,5.3975,5.3973,5.3971,0,0,5.4254,5.4216,5.4231,5.4225,5.4203,5.422,5.4254,5.4258,5.4269,5.4265,5.4292,5.4315,5.4273,5.4273,5.4239,5.4269,5.4363,5.422,5.4219,5.4246,5.4449,5.4481,5.4499,5.4333,5.4336,5.4338,5.4449,0,5.437,5.4425,5.4381,5.4444,5.4463,5.4397,5.4427,5.4417,5.4395,5.4408,5.4384,5.44,5.4345,5.4344,5.4371,5.4346,5.4403,5.4337,5.4357,5.4358,5.4361,5.4518,5.4552,5.4658,5.4463,5.4466,5.4467,0,5.4512,5.4512,5.4577,5.455,5.4556,5.4584,5.4583,5.4597,5.4584,5.4566,5.4566,5.4523,5.4555,5.4492,5.4534,5.4491,5.4497,5.4486,5.4489,5.4488,5.4418,5.452,5.4691,5.4706,5.4489,5.4487,5.4486,0,5.464,5.4657,5.4697,5.4695,5.4664,5.4685,5.4673,5.4657,5.4662,5.4662,5.4665,5.4669,5.4672,5.4676,5.4636,5.4594,5.4683,5.4617,5.4668,5.4669,5.4689,5.4688,5.4862,5.4695,5.4695,5.4695,5.4694,0,5.4772,5.4814,5.4754,5.4779,5.4823,5.4773,5.4819,5.48,5.4786,5.4806,5.4751,5.4771,5.4717,5.4732,5.4701,5.474,5.4742,5.4728,5.4718,5.4732,5.4733,5.4733,5.4725,5.4699,5.4698,5.4697,5.4696,0,5.4922,5.4884,5.4923,5.4891,5.4883,5.4918,5.489,5.4912,5.4886,5.4912,5.4915,5.4874,5.4889,5.4849,5.4858,5.4837,5.4893,5.4873,5.4897,5.489,5.4943,5.4938,5.5122,5.5143,5.4965,5.4966,5.4968,0,5.5009,5.5039,5.5009,5.5018,5.5009,5.5025,5.5029,5.4981,5.4988,5.4975,5.4998,5.5007,5.5012,5.5038,5.501,5.5016,5.4995,5.5059,5.4995,5.5007,5.4994,5.4992,5.4994,5.5071,5.5074,5.5075,5.5077,0,5.5166,5.5145,5.5153,5.5154,5.516,5.5159,5.5154,5.5165,5.5113,5.5124,5.5137,5.5141,5.5149,5.5159,5.5158,5.5147,5.5103,5.5097,5.5109,5.5122,5.5134,5.5127,5.4931,5.5093,5.5091,5.509,5.5089,5.5089,5.5285,5.5308,5.5291,5.5301,5.5292,5.5289,5.5307,5.5282,5.5292,5.5294,5.5265,5.5285,5.527,5.5265,5.5258,5.5273,5.5243,5.5261,5.5265,5.527,5.5278,5.5133,5.5273,5.5272,5.5272,5.5271,5.5271,0,5.5438,5.5423,5.5433,5.5427,5.5435,5.5393,5.5385,5.5395,5.5412,5.5402,5.5408,5.5423,5.5432,5.5404,5.5409,5.5426,5.5406,5.5429,5.5426,5.5424,5.5305,5.5293,5.5445,5.5445,5.5445,5.5445,5.5445,5.5445,5.5518,5.5554,5.5532,5.5563,5.5548,5.5565,5.5564,5.5561,5.5552,5.5571,5.5578,5.5559,5.5542,5.5545,5.5552,5.5543,5.5547,5.5577,5.5562,5.545,5.5433,5.5417,5.5405,5.5578,5.5579,5.568,5.5681,5.5681]}]]